Content
SEND FEEDBACK

Daily
Averages
Monthly
Summary
United States of America

NEW YORK - CENTRAL PARK, NEW YORK


Home > North America > United States > New York
Elevation: 14 feet     Latitude: 40 47N     Longitude: 073 58W

WEATHER
 
SELECT A DAY
Number of Records: 150,506;   Date Range: 11/1/95 - 9/29/14
 
SHARE

PRINT THIS DATA

[ ← Previous Day ]
WEATHER ALMANAC - MARCH 15, 2014
[ Next Day → ]
[ °C ]   °F
Weather ElementAverageHighLow
Temperature51.3 °F57.9 °F (12:51 pm)44.1 °F (1:51 am)
Dewpoint23.8 °F27 °F (4:51 am)19 °F (9:51 pm)
Humidity35 %47 % (1:51 am)26 % (3:51 pm)
Barometer29.83 in30.00 in (11:51 pm)29.76 in (4:51 am)
Wind Speed9.1 mph17.3 mph (9:51 pm)
Wind Gust29.9 mph (2:51 pm)
Weather ElementAverage
Visibility10 mi
Wind DirectionS (184.3 °)

Weather ElementTotal
Precipitation---
Heating Degree Days14 (Base 65)
Growing Degree Days1 (Base 50)
Averaged from 23 records on March 15, 2014
WEATHER CONDITIONS BREAKOUT
WIND DIRECTION BREAKOUT
WEATHER BY HOUR - MARCH 15, 2014
[ °C ]   °F
Local TimeTemperatureDewpointHumidityBarometerVisibilityWind DirectionWind SpeedGust SpeedPrecipitationEventsConditions
1:51 AM44.1 °F25.0 °F47 %29.85 in10.0 miCalmOvercast
2:51 AM46.0 °F24.1 °F42 %29.82 in10.0 miSSW (200°)8.1 mphOvercast
3:51 AM46.0 °F25.0 °F44 %29.79 in10.0 miNorthOvercast
4:51 AM48.0 °F27.0 °F44 %29.76 in10.0 miVariable5.8 mphOvercast
5:51 AM48.9 °F27.0 °F43 %29.77 in10.0 miVariable5.8 mphOvercast
6:51 AM48.0 °F26.1 °F42 %29.76 in10.0 miNorthScattered Clouds
7:51 AM48.0 °F26.1 °F42 %29.80 in10.0 miVariable3.5 mphOvercast
8:51 AM48.9 °F25.0 °F39 %29.77 in10.0 miVariable3.5 mphOvercast
9:51 AM51.1 °F25.0 °F36 %29.78 in10.0 miWest (260°)8.1 mphScattered Clouds
10:51 AM54.0 °F26.1 °F34 %29.78 in10.0 miVariable6.9 mph17.3 mphPartly Cloudy
11:51 AM55.9 °F27.0 °F33 %29.78 in10.0 miWest (280°)9.2 mph28.8 mphClear
12:51 PM57.9 °F27.0 °F31 %29.78 in10.0 miWest (280°)11.5 mph19.6 mphMostly Cloudy
1:51 PM55.9 °F23.0 °F28 %29.79 in10.0 miWNW (290°)15.0 mph28.8 mphScattered Clouds
2:51 PM57.0 °F23.0 °F27 %29.79 in10.0 miWest (270°)10.4 mph29.9 mphPartly Cloudy
3:51 PM57.0 °F21.9 °F26 %29.79 in10.0 miWNW (300°)13.8 mph25.3 mphScattered Clouds
4:51 PM57.0 °F21.9 °F26 %29.81 in10.0 miWNW (290°)8.1 mph18.4 mphScattered Clouds
5:51 PM55.0 °F21.0 °F27 %29.84 in10.0 miWNW (300°)10.4 mph20.7 mphClear
6:51 PM54.0 °F19.9 °F26 %29.87 in10.0 miWNW (290°)13.8 mph21.9 mphClear
7:51 PM53.1 °F21.0 °F29 %29.90 in10.0 miWest (280°)11.5 mph20.7 mphScattered Clouds
8:51 PM51.1 °F21.0 °F31 %29.93 in10.0 miWest (280°)9.2 mph19.6 mphClear
9:51 PM50.0 °F19.0 °F29 %29.95 in10.0 miWNW (290°)17.3 mph26.5 mphClear
10:51 PM46.9 °F21.9 °F37 %29.99 in10.0 miNW (310°)10.4 mph18.4 mphClear
11:51 PM45.0 °F23.0 °F42 %30.00 in10.0 miNW (320°)8.1 mphClear
Hourly data recorded from KNYC, located miles away from New York - Central Park, New York







STORIES FROM OUR PARTNERS